owner,sensor,date,latitude,longitude,vertical_datum,sea_water_temperature,qcFlag 
DISL,ioos:station:DISL:BSCA:1,2018-10-01T00:30:00Z,30.3288,-87.8293,0.0,29.15,11111222 
DISL,ioos:station:DISL:BSCA:1,2018-10-01T01:00:00Z,30.3288,-87.8293,0.0,29.26,11111222 
DISL,ioos:station:DISL:BSCA:1,2018-10-01T02:30:00Z,30.3288,-87.8293,0.0,29.12,11111222 
DISL,ioos:station:DISL:BSCA:1,2018-10-01T03:00:00Z,30.3288,-87.8293,0.0,29.13,11111222 
DISL,ioos:station:DISL:BSCA:1,2018-10-01T04:00:00Z,30.3288,-87.8293,0.0,28.99,11111222 
DISL,ioos:station:DISL:BSCA:1,2018-10-01T05:30:00Z,30.3288,-87.8293,0.0,28.88,11111222 
DISL,ioos:station:DISL:BSCA:1,2018-10-01T06:00:00Z,30.3288,-87.8293,0.0,28.84,11111222 
DISL,ioos:station:DISL:BSCA:1,2018-10-01T07:00:00Z,30.3288,-87.8293,0.0,28.78,11111222 
DISL,ioos:station:DISL:BSCA:1,2018-10-01T08:30:00Z,30.3288,-87.8293,0.0,28.55,11111222 
DISL,ioos:station:DISL:BSCA:1,2018-10-01T09:30:00Z,30.3288,-87.8293,0.0,28.48,11111222 
DISL,ioos:station:DISL:BSCA:1,2018-10-01T10:00:00Z,30.3288,-87.8293,0.0,28.62,11111222 
DISL,ioos:station:DISL:BSCA:1,2018-10-01T11:00:00Z,30.3288,-87.8293,0.0,28.43,11111222 
DISL,ioos:station:DISL:BSCA:1,2018-10-01T12:30:00Z,30.3288,-87.8293,0.0,28.16,11111222 
DISL,ioos:station:DISL:BSCA:1,2018-10-01T13:00:00Z,30.3288,-87.8293,0.0,28.15,11111222 
DISL,ioos:station:DISL:BSCA:1,2018-10-01T14:00:00Z,30.3288,-87.8293,0.0,28.16,11111222 
DISL,ioos:station:DISL:BSCA:1,2018-10-01T15:30:00Z,30.3288,-87.8293,0.0,28.24,11111222 
DISL,ioos:station:DISL:BSCA:1,2018-10-01T16:30:00Z,30.3288,-87.8293,0.0,28.38,11111222 
DISL,ioos:station:DISL:BSCA:1,2018-10-01T17:30:00Z,30.3288,-87.8293,0.0,28.46,11111222 
DISL,ioos:station:DISL:BSCA:1,2018-10-01T18:30:00Z,30.3288,-87.8293,0.0,28.58,11111222 
DISL,ioos:station:DISL:BSCA:1,2018-10-01T19:00:00Z,30.3288,-87.8293,0.0,28.69,11111222 
DISL,ioos:station:DISL:BSCA:1,2018-10-01T20:30:00Z,30.3288,-87.8293,0.0,28.75,11111222 
DISL,ioos:station:DISL:BSCA:1,2018-10-01T21:30:00Z,30.3288,-87.8293,0.0,28.86,11111222 
DISL,ioos:station:DISL:BSCA:1,2018-10-01T22:00:00Z,30.3288,-87.8293,0.0,28.91,11111222 
DISL,ioos:station:DISL:BSCA:1,2018-10-01T23:00:00Z,30.3288,-87.8293,0.0,29.14,11111222 
DISL,ioos:station:DISL:BSCA:1,2018-10-02T00:30:00Z,30.3288,-87.8293,0.0,29.26,11111222 
DISL,ioos:station:DISL:BSCA:1,2018-10-02T01:30:00Z,30.3288,-87.8293,0.0,29.23,11111222 
DISL,ioos:station:DISL:BSCA:1,2018-10-02T02:00:00Z,30.3288,-87.8293,0.0,29.28,11111222 
DISL,ioos:station:DISL:BSCA:1,2018-10-02T03:00:00Z,30.3288,-87.8293,0.0,29.25,11111222 
DISL,ioos:station:DISL:BSCA:1,2018-10-02T04:30:00Z,30.3288,-87.8293,0.0,29.19,11111222 
DISL,ioos:station:DISL:BSCA:1,2018-10-02T05:30:00Z,30.3288,-87.8293,0.0,29.16,11111222 
DISL,ioos:station:DISL:BSCA:1,2018-10-02T06:00:00Z,30.3288,-87.8293,0.0,29.11,11111222 
DISL,ioos:station:DISL:BSCA:1,2018-10-02T07:30:00Z,30.3288,-87.8293,0.0,28.83,11111222 
DISL,ioos:station:DISL:BSCA:1,2018-10-02T08:30:00Z,30.3288,-87.8293,0.0,28.68,11111222 
DISL,ioos:station:DISL:BSCA:1,2018-10-02T09:30:00Z,30.3288,-87.8293,0.0,28.64,11111222 
DISL,ioos:station:DISL:BSCA:1,2018-10-02T10:30:00Z,30.3288,-87.8293,0.0,28.54,11111222 
DISL,ioos:station:DISL:BSCA:1,2018-10-02T11:00:00Z,30.3288,-87.8293,0.0,28.51,11111222 
DISL,ioos:station:DISL:BSCA:1,2018-10-02T12:30:00Z,30.3288,-87.8293,0.0,28.46,11111222 
DISL,ioos:station:DISL:BSCA:1,2018-10-02T13:30:00Z,30.3288,-87.8293,0.0,28.64,11111222 
DISL,ioos:station:DISL:BSCA:1,2018-10-02T14:00:00Z,30.3288,-87.8293,0.0,28.6,11111222 
DISL,ioos:station:DISL:BSCA:1,2018-10-02T15:00:00Z,30.3288,-87.8293,0.0,28.59,11111222 
DISL,ioos:station:DISL:BSCA:1,2018-10-02T16:30:00Z,30.3288,-87.8293,0.0,28.77,11111222 
DISL,ioos:station:DISL:BSCA:1,2018-10-02T17:30:00Z,30.3288,-87.8293,0.0,28.91,11111222 
DISL,ioos:station:DISL:BSCA:1,2018-10-02T18:00:00Z,30.3288,-87.8293,0.0,28.89,11111222 
DISL,ioos:station:DISL:BSCA:1,2018-10-02T19:00:00Z,30.3288,-87.8293,0.0,28.96,11111222 
DISL,ioos:station:DISL:BSCA:1,2018-10-02T20:30:00Z,30.3288,-87.8293,0.0,29.7,11111222 
DISL,ioos:station:DISL:BSCA:1,2018-10-02T21:30:00Z,30.3288,-87.8293,0.0,29.65,11111222 
DISL,ioos:station:DISL:BSCA:1,2018-10-02T22:30:00Z,30.3288,-87.8293,0.0,29.69,11111222 
DISL,ioos:station:DISL:BSCA:1,2018-10-02T23:00:00Z,30.3288,-87.8293,0.0,29.65,11111222 
DISL,ioos:station:DISL:BSCA:1,2018-10-03T00:30:00Z,30.3288,-87.8293,0.0,29.48,11111222 
DISL,ioos:station:DISL:BSCA:1,2018-10-03T01:30:00Z,30.3288,-87.8293,0.0,29.48,11111222 
DISL,ioos:station:DISL:BSCA:1,2018-10-03T02:00:00Z,30.3288,-87.8293,0.0,29.42,11111222 
DISL,ioos:station:DISL:BSCA:1,2018-10-03T02:30:00Z,30.3288,-87.8293,0.0,29.45,11111222 
DISL,ioos:station:DISL:BSCA:1,2018-10-03T05:00:00Z,30.3288,-87.8293,0.0,29.22,11111222 
DISL,ioos:station:DISL:BSCA:1,2018-10-03T06:00:00Z,30.3288,-87.8293,0.0,29.24,11111222 
DISL,ioos:station:DISL:BSCA:1,2018-10-03T07:00:00Z,30.3288,-87.8293,0.0,29.24,11111222 
DISL,ioos:station:DISL:BSCA:1,2018-10-03T08:30:00Z,30.3288,-87.8293,0.0,29.22,11111222 
DISL,ioos:station:DISL:BSCA:1,2018-10-03T09:30:00Z,30.3288,-87.8293,0.0,29.2,11111222 
DISL,ioos:station:DISL:BSCA:1,2018-10-03T10:00:00Z,30.3288,-87.8293,0.0,29.19,11111222 
DISL,ioos:station:DISL:BSCA:1,2018-10-03T11:00:00Z,30.3288,-87.8293,0.0,29.11,11111222 
DISL,ioos:station:DISL:BSCA:1,2018-10-03T12:30:00Z,30.3288,-87.8293,0.0,28.78,11111222 
DISL,ioos:station:DISL:BSCA:1,2018-10-03T13:30:00Z,30.3288,-87.8293,0.0,28.64,11111222 
DISL,ioos:station:DISL:BSCA:1,2018-10-03T14:30:00Z,30.3288,-87.8293,0.0,28.67,11111222 
DISL,ioos:station:DISL:BSCA:1,2018-10-03T15:00:00Z,30.3288,-87.8293,0.0,28.92,11111222 
DISL,ioos:station:DISL:BSCA:1,2018-10-03T16:30:00Z,30.3288,-87.8293,0.0,28.86,11111222 
DISL,ioos:station:DISL:BSCA:1,2018-10-03T17:30:00Z,30.3288,-87.8293,0.0,28.99,11111222 
DISL,ioos:station:DISL:BSCA:1,2018-10-03T18:00:00Z,30.3288,-87.8293,0.0,29.11,11111222 
DISL,ioos:station:DISL:BSCA:1,2018-10-03T19:30:00Z,30.3288,-87.8293,0.0,29.34,11111222 
DISL,ioos:station:DISL:BSCA:1,2018-10-03T20:30:00Z,30.3288,-87.8293,0.0,29.42,11111222 
DISL,ioos:station:DISL:BSCA:1,2018-10-03T21:30:00Z,30.3288,-87.8293,0.0,29.51,11111222 
DISL,ioos:station:DISL:BSCA:1,2018-10-03T22:00:00Z,30.3288,-87.8293,0.0,29.62,11111222 
DISL,ioos:station:DISL:BSCA:1,2018-10-03T23:00:00Z,30.3288,-87.8293,0.0,29.47,11111222 
DISL,ioos:station:DISL:BSCA:1,2018-10-04T00:30:00Z,30.3288,-87.8293,0.0,29.32,11111222 
DISL,ioos:station:DISL:BSCA:1,2018-10-04T01:30:00Z,30.3288,-87.8293,0.0,29.3,11111222 
DISL,ioos:station:DISL:BSCA:1,2018-10-04T02:00:00Z,30.3288,-87.8293,0.0,29.36,11111222 
DISL,ioos:station:DISL:BSCA:1,2018-10-04T03:00:00Z,30.3288,-87.8293,0.0,29.37,11111222 
DISL,ioos:station:DISL:BSCA:1,2018-10-04T04:30:00Z,30.3288,-87.8293,0.0,29.35,11111222 
DISL,ioos:station:DISL:BSCA:1,2018-10-04T05:30:00Z,30.3288,-87.8293,0.0,29.3,11111222 
DISL,ioos:station:DISL:BSCA:1,2018-10-04T06:00:00Z,30.3288,-87.8293,0.0,29.23,11111222 
DISL,ioos:station:DISL:BSCA:1,2018-10-04T07:00:00Z,30.3288,-87.8293,0.0,29.22,11111222 
DISL,ioos:station:DISL:BSCA:1,2018-10-04T08:30:00Z,30.3288,-87.8293,0.0,29.22,11111222 
DISL,ioos:station:DISL:BSCA:1,2018-10-04T09:30:00Z,30.3288,-87.8293,0.0,29.24,11111222 
DISL,ioos:station:DISL:BSCA:1,2018-10-04T10:30:00Z,30.3288,-87.8293,0.0,29.24,11111222 
DISL,ioos:station:DISL:BSCA:1,2018-10-04T11:00:00Z,30.3288,-87.8293,0.0,29.24,11111222 
DISL,ioos:station:DISL:BSCA:1,2018-10-04T12:30:00Z,30.3288,-87.8293,0.0,29.19,11111222 
DISL,ioos:station:DISL:BSCA:1,2018-10-04T13:30:00Z,30.3288,-87.8293,0.0,29.15,11111222 
DISL,ioos:station:DISL:BSCA:1,2018-10-04T14:00:00Z,30.3288,-87.8293,0.0,29.12,11111222 
DISL,ioos:station:DISL:BSCA:1,2018-10-04T15:00:00Z,30.3288,-87.8293,0.0,29.17,11111222 
DISL,ioos:station:DISL:BSCA:1,2018-10-04T16:00:00Z,30.3288,-87.8293,0.0,29.15,11111222 
DISL,ioos:station:DISL:BSCA:1,2018-10-04T17:30:00Z,30.3288,-87.8293,0.0,29.2,11111222 
DISL,ioos:station:DISL:BSCA:1,2018-10-04T18:00:00Z,30.3288,-87.8293,0.0,29.19,11111222 
DISL,ioos:station:DISL:BSCA:1,2018-10-04T19:00:00Z,30.3288,-87.8293,0.0,29.32,11111222 
DISL,ioos:station:DISL:BSCA:1,2018-10-04T20:30:00Z,30.3288,-87.8293,0.0,29.54,11111222 
DISL,ioos:station:DISL:BSCA:1,2018-10-04T21:30:00Z,30.3288,-87.8293,0.0,29.61,11111222 
DISL,ioos:station:DISL:BSCA:1,2018-10-04T22:00:00Z,30.3288,-87.8293,0.0,29.66,11111222 
DISL,ioos:station:DISL:BSCA:1,2018-10-04T23:00:00Z,30.3288,-87.8293,0.0,29.63,11111222 
DISL,ioos:station:DISL:BSCA:1,2018-10-05T00:00:00Z,30.3288,-87.8293,0.0,29.51,11111222 
DISL,ioos:station:DISL:BSCA:1,2018-10-05T01:00:00Z,30.3288,-87.8293,0.0,29.44,11111222 
DISL,ioos:station:DISL:BSCA:1,2018-10-05T02:00:00Z,30.3288,-87.8293,0.0,29.38,11111222 
DISL,ioos:station:DISL:BSCA:1,2018-10-05T03:00:00Z,30.3288,-87.8293,0.0,29.36,11111222 
DISL,ioos:station:DISL:BSCA:1,2018-10-05T04:00:00Z,30.3288,-87.8293,0.0,29.31,11111222 
DISL,ioos:station:DISL:BSCA:1,2018-10-05T05:30:00Z,30.3288,-87.8293,0.0,29.25,11111222 
DISL,ioos:station:DISL:BSCA:1,2018-10-05T06:00:00Z,30.3288,-87.8293,0.0,29.24,11111222 
DISL,ioos:station:DISL:BSCA:1,2018-10-05T07:00:00Z,30.3288,-87.8293,0.0,29.23,11111222 
DISL,ioos:station:DISL:BSCA:1,2018-10-05T08:30:00Z,30.3288,-87.8293,0.0,29.2,11111222 
DISL,ioos:station:DISL:BSCA:1,2018-10-05T09:00:00Z,30.3288,-87.8293,0.0,29.2,11111222 
DISL,ioos:station:DISL:BSCA:1,2018-10-05T10:00:00Z,30.3288,-87.8293,0.0,29.17,11111222 
DISL,ioos:station:DISL:BSCA:1,2018-10-05T11:00:00Z,30.3288,-87.8293,0.0,29.04,11111222 
DISL,ioos:station:DISL:BSCA:1,2018-10-05T12:30:00Z,30.3288,-87.8293,0.0,28.83,11111222 
DISL,ioos:station:DISL:BSCA:1,2018-10-05T13:30:00Z,30.3288,-87.8293,0.0,28.97,11111222 
DISL,ioos:station:DISL:BSCA:1,2018-10-05T14:00:00Z,30.3288,-87.8293,0.0,28.96,11111222 
DISL,ioos:station:DISL:BSCA:1,2018-10-05T15:00:00Z,30.3288,-87.8293,0.0,28.94,11111222 
DISL,ioos:station:DISL:BSCA:1,2018-10-05T16:30:00Z,30.3288,-87.8293,0.0,29.14,11111222 
DISL,ioos:station:DISL:BSCA:1,2018-10-05T17:30:00Z,30.3288,-87.8293,0.0,29.11,11111222 
DISL,ioos:station:DISL:BSCA:1,2018-10-05T18:00:00Z,30.3288,-87.8293,0.0,29.12,11111222 
DISL,ioos:station:DISL:BSCA:1,2018-10-05T19:00:00Z,30.3288,-87.8293,0.0,29.2,11111222 
DISL,ioos:station:DISL:BSCA:1,2018-10-05T20:30:00Z,30.3288,-87.8293,0.0,29.39,11111222 
DISL,ioos:station:DISL:BSCA:1,2018-10-05T21:30:00Z,30.3288,-87.8293,0.0,29.45,11111222 
DISL,ioos:station:DISL:BSCA:1,2018-10-05T22:00:00Z,30.3288,-87.8293,0.0,29.45,11111222 
DISL,ioos:station:DISL:BSCA:1,2018-10-05T23:00:00Z,30.3288,-87.8293,0.0,29.4,11111222 
DISL,ioos:station:DISL:BSCA:1,2018-10-06T00:30:00Z,30.3288,-87.8293,0.0,29.22,11111222 
DISL,ioos:station:DISL:BSCA:1,2018-10-06T01:00:00Z,30.3288,-87.8293,0.0,29.2,11111222 
DISL,ioos:station:DISL:BSCA:1,2018-10-06T02:30:00Z,30.3288,-87.8293,0.0,29.18,11111222 
DISL,ioos:station:DISL:BSCA:1,2018-10-06T03:30:00Z,30.3288,-87.8293,0.0,29.18,11111222 
DISL,ioos:station:DISL:BSCA:1,2018-10-06T04:00:00Z,30.3288,-87.8293,0.0,29.14,11111222 
DISL,ioos:station:DISL:BSCA:1,2018-10-06T05:00:00Z,30.3288,-87.8293,0.0,29.12,11111222 
DISL,ioos:station:DISL:BSCA:1,2018-10-06T06:00:00Z,30.3288,-87.8293,0.0,29.0,11111222 
DISL,ioos:station:DISL:BSCA:1,2018-10-06T07:30:00Z,30.3288,-87.8293,0.0,28.87,11111222 
DISL,ioos:station:DISL:BSCA:1,2018-10-06T08:30:00Z,30.3288,-87.8293,0.0,28.82,11111222 
DISL,ioos:station:DISL:BSCA:1,2018-10-06T09:00:00Z,30.3288,-87.8293,0.0,28.79,11111222 
DISL,ioos:station:DISL:BSCA:1,2018-10-06T10:00:00Z,30.3288,-87.8293,0.0,28.77,11111222 
DISL,ioos:station:DISL:BSCA:1,2018-10-06T11:00:00Z,30.3288,-87.8293,0.0,28.71,11111222 
DISL,ioos:station:DISL:BSCA:1,2018-10-06T12:30:00Z,30.3288,-87.8293,0.0,28.8,11111222 
DISL,ioos:station:DISL:BSCA:1,2018-10-06T13:30:00Z,30.3288,-87.8293,0.0,28.56,11111222 
DISL,ioos:station:DISL:BSCA:1,2018-10-06T14:00:00Z,30.3288,-87.8293,0.0,28.66,11111222 
DISL,ioos:station:DISL:BSCA:1,2018-10-06T15:00:00Z,30.3288,-87.8293,0.0,28.64,11111222 
DISL,ioos:station:DISL:BSCA:1,2018-10-06T16:30:00Z,30.3288,-87.8293,0.0,28.84,11111222 
DISL,ioos:station:DISL:BSCA:1,2018-10-06T17:00:00Z,30.3288,-87.8293,0.0,28.92,11111222 
DISL,ioos:station:DISL:BSCA:1,2018-10-06T18:00:00Z,30.3288,-87.8293,0.0,29.15,11111222 
DISL,ioos:station:DISL:BSCA:1,2018-10-06T19:00:00Z,30.3288,-87.8293,0.0,29.34,11111222 
DISL,ioos:station:DISL:BSCA:1,2018-10-06T20:30:00Z,30.3288,-87.8293,0.0,29.48,11111222 
DISL,ioos:station:DISL:BSCA:1,2018-10-06T21:00:00Z,30.3288,-87.8293,0.0,29.63,11111222 
DISL,ioos:station:DISL:BSCA:1,2018-10-06T22:00:00Z,30.3288,-87.8293,0.0,29.61,11111222 
DISL,ioos:station:DISL:BSCA:1,2018-10-06T23:00:00Z,30.3288,-87.8293,0.0,29.53,11111222 
DISL,ioos:station:DISL:BSCA:1,2018-10-07T00:30:00Z,30.3288,-87.8293,0.0,29.42,11111222 
DISL,ioos:station:DISL:BSCA:1,2018-10-07T01:00:00Z,30.3288,-87.8293,0.0,29.29,11111222 
DISL,ioos:station:DISL:BSCA:1,2018-10-07T02:00:00Z,30.3288,-87.8293,0.0,29.21,11111222 
DISL,ioos:station:DISL:BSCA:1,2018-10-07T03:00:00Z,30.3288,-87.8293,0.0,29.2,11111222 
DISL,ioos:station:DISL:BSCA:1,2018-10-07T04:30:00Z,30.3288,-87.8293,0.0,29.25,11111222 
DISL,ioos:station:DISL:BSCA:1,2018-10-07T05:00:00Z,30.3288,-87.8293,0.0,29.24,11111222 
DISL,ioos:station:DISL:BSCA:1,2018-10-07T06:00:00Z,30.3288,-87.8293,0.0,29.26,11111222 
DISL,ioos:station:DISL:BSCA:1,2018-10-07T07:00:00Z,30.3288,-87.8293,0.0,29.27,11111222 
DISL,ioos:station:DISL:BSCA:1,2018-10-07T08:30:00Z,30.3288,-87.8293,0.0,29.25,11111222 
DISL,ioos:station:DISL:BSCA:1,2018-10-07T09:00:00Z,30.3288,-87.8293,0.0,29.31,11111222 
DISL,ioos:station:DISL:BSCA:1,2018-10-07T10:00:00Z,30.3288,-87.8293,0.0,29.09,11111222 
DISL,ioos:station:DISL:BSCA:1,2018-10-07T11:00:00Z,30.3288,-87.8293,0.0,28.9,11111222 
DISL,ioos:station:DISL:BSCA:1,2018-10-07T12:30:00Z,30.3288,-87.8293,0.0,29.21,11111222 
DISL,ioos:station:DISL:BSCA:1,2018-10-07T13:00:00Z,30.3288,-87.8293,0.0,29.24,11111222 
DISL,ioos:station:DISL:BSCA:1,2018-10-07T14:00:00Z,30.3288,-87.8293,0.0,29.18,11111222 
DISL,ioos:station:DISL:BSCA:1,2018-10-07T15:00:00Z,30.3288,-87.8293,0.0,29.08,11111222 
DISL,ioos:station:DISL:BSCA:1,2018-10-07T16:30:00Z,30.3288,-87.8293,0.0,28.88,11111222 
DISL,ioos:station:DISL:BSCA:1,2018-10-07T17:00:00Z,30.3288,-87.8293,0.0,28.96,11111222 
DISL,ioos:station:DISL:BSCA:1,2018-10-07T18:00:00Z,30.3288,-87.8293,0.0,28.99,11111222 
DISL,ioos:station:DISL:BSCA:1,2018-10-07T19:00:00Z,30.3288,-87.8293,0.0,29.0,11111222 
DISL,ioos:station:DISL:BSCA:1,2018-10-07T20:00:00Z,30.3288,-87.8293,0.0,29.06,11111222 
DISL,ioos:station:DISL:BSCA:1,2018-10-07T21:30:00Z,30.3288,-87.8293,0.0,29.06,11111222 
DISL,ioos:station:DISL:BSCA:1,2018-10-07T22:00:00Z,30.3288,-87.8293,0.0,29.09,11111222 
DISL,ioos:station:DISL:BSCA:1,2018-10-07T23:00:00Z,30.3288,-87.8293,0.0,29.03,11111222 
DISL,ioos:station:DISL:BSCA:1,2018-10-08T00:30:00Z,30.3288,-87.8293,0.0,29.16,11111222 
DISL,ioos:station:DISL:BSCA:1,2018-10-08T01:00:00Z,30.3288,-87.8293,0.0,29.16,11111222 
DISL,ioos:station:DISL:BSCA:1,2018-10-08T02:00:00Z,30.3288,-87.8293,0.0,29.15,11111222 
DISL,ioos:station:DISL:BSCA:1,2018-10-08T03:00:00Z,30.3288,-87.8293,0.0,28.9,11111222 
DISL,ioos:station:DISL:BSCA:1,2018-10-08T04:30:00Z,30.3288,-87.8293,0.0,29.13,11111222 
DISL,ioos:station:DISL:BSCA:1,2018-10-08T05:00:00Z,30.3288,-87.8293,0.0,29.1,11111222 
DISL,ioos:station:DISL:BSCA:1,2018-10-08T06:00:00Z,30.3288,-87.8293,0.0,29.07,11111222 
DISL,ioos:station:DISL:BSCA:1,2018-10-08T07:30:00Z,30.3288,-87.8293,0.0,29.08,11111222 
DISL,ioos:station:DISL:BSCA:1,2018-10-08T08:30:00Z,30.3288,-87.8293,0.0,28.74,11111222 
DISL,ioos:station:DISL:BSCA:1,2018-10-08T09:30:00Z,30.3288,-87.8293,0.0,28.43,11111222 
DISL,ioos:station:DISL:BSCA:1,2018-10-08T10:30:00Z,30.3288,-87.8293,0.0,28.84,11111222 
DISL,ioos:station:DISL:BSCA:1,2018-10-08T11:00:00Z,30.3288,-87.8293,0.0,28.72,11111222 
DISL,ioos:station:DISL:BSCA:1,2018-10-08T12:30:00Z,30.3288,-87.8293,0.0,28.55,11111222 
DISL,ioos:station:DISL:BSCA:1,2018-10-08T13:30:00Z,30.3288,-87.8293,0.0,28.51,11111222 
DISL,ioos:station:DISL:BSCA:1,2018-10-08T14:30:00Z,30.3288,-87.8293,0.0,28.49,11111222 
DISL,ioos:station:DISL:BSCA:1,2018-10-08T15:30:00Z,30.3288,-87.8293,0.0,28.56,11111222 
DISL,ioos:station:DISL:BSCA:1,2018-10-08T16:30:00Z,30.3288,-87.8293,0.0,28.72,11111222 
DISL,ioos:station:DISL:BSCA:1,2018-10-08T17:30:00Z,30.3288,-87.8293,0.0,28.83,11111222 
DISL,ioos:station:DISL:BSCA:1,2018-10-08T18:30:00Z,30.3288,-87.8293,0.0,28.9,11111222 
DISL,ioos:station:DISL:BSCA:1,2018-10-08T19:30:00Z,30.3288,-87.8293,0.0,29.0,11111222 
DISL,ioos:station:DISL:BSCA:1,2018-10-08T20:30:00Z,30.3288,-87.8293,0.0,29.0,11111222 
DISL,ioos:station:DISL:BSCA:1,2018-10-08T21:30:00Z,30.3288,-87.8293,0.0,28.96,11111222 
DISL,ioos:station:DISL:BSCA:1,2018-10-08T22:30:00Z,30.3288,-87.8293,0.0,28.95,11111222 
DISL,ioos:station:DISL:BSCA:1,2018-10-08T23:00:00Z,30.3288,-87.8293,0.0,28.89,11111222 
DISL,ioos:station:DISL:BSCA:1,2018-10-09T00:30:00Z,30.3288,-87.8293,0.0,28.77,11111222 
DISL,ioos:station:DISL:BSCA:1,2018-10-09T01:30:00Z,30.3288,-87.8293,0.0,28.57,11111222 
DISL,ioos:station:DISL:BSCA:1,2018-10-09T02:30:00Z,30.3288,-87.8293,0.0,28.39,11111222 
DISL,ioos:station:DISL:BSCA:1,2018-10-09T03:00:00Z,30.3288,-87.8293,0.0,28.49,11111222 
DISL,ioos:station:DISL:BSCA:1,2018-10-09T04:30:00Z,30.3288,-87.8293,0.0,28.58,11111222 
DISL,ioos:station:DISL:BSCA:1,2018-10-09T05:30:00Z,30.3288,-87.8293,0.0,28.47,11111222 
DISL,ioos:station:DISL:BSCA:1,2018-10-09T06:30:00Z,30.3288,-87.8293,0.0,28.45,11111222 
DISL,ioos:station:DISL:BSCA:1,2018-10-09T07:30:00Z,30.3288,-87.8293,0.0,28.43,11111222 
DISL,ioos:station:DISL:BSCA:1,2018-10-09T08:30:00Z,30.3288,-87.8293,0.0,28.38,11111222 
DISL,ioos:station:DISL:BSCA:1,2018-10-09T09:30:00Z,30.3288,-87.8293,0.0,28.32,11111222 
DISL,ioos:station:DISL:BSCA:1,2018-10-09T10:30:00Z,30.3288,-87.8293,0.0,28.24,11111222 
DISL,ioos:station:DISL:BSCA:1,2018-10-09T11:30:00Z,30.3288,-87.8293,0.0,28.19,11111222 
DISL,ioos:station:DISL:BSCA:1,2018-10-09T12:30:00Z,30.3288,-87.8293,0.0,28.1,11111222 
DISL,ioos:station:DISL:BSCA:1,2018-10-09T13:30:00Z,30.3288,-87.8293,0.0,27.98,11111222 
DISL,ioos:station:DISL:BSCA:1,2018-10-09T14:30:00Z,30.3288,-87.8293,0.0,27.99,11111222 
DISL,ioos:station:DISL:BSCA:1,2018-10-09T15:30:00Z,30.3288,-87.8293,0.0,28.01,11111222 
DISL,ioos:station:DISL:BSCA:1,2018-10-09T16:30:00Z,30.3288,-87.8293,0.0,28.05,11111222 
DISL,ioos:station:DISL:BSCA:1,2018-10-09T17:30:00Z,30.3288,-87.8293,0.0,28.1,11111222 
DISL,ioos:station:DISL:BSCA:1,2018-10-09T18:30:00Z,30.3288,-87.8293,0.0,28.11,11111222 
DISL,ioos:station:DISL:BSCA:1,2018-10-09T19:30:00Z,30.3288,-87.8293,0.0,28.13,11111222 
DISL,ioos:station:DISL:BSCA:1,2018-10-09T20:30:00Z,30.3288,-87.8293,0.0,28.13,11111222 
DISL,ioos:station:DISL:BSCA:1,2018-10-09T21:30:00Z,30.3288,-87.8293,0.0,28.25,11111222 
DISL,ioos:station:DISL:BSCA:1,2018-10-09T22:00:00Z,30.3288,-87.8293,0.0,28.26,11111222 
DISL,ioos:station:DISL:BSCA:1,2018-10-09T23:00:00Z,30.3288,-87.8293,0.0,28.17,11111222 
DISL,ioos:station:DISL:BSCA:1,2018-10-10T00:30:00Z,30.3288,-87.8293,0.0,28.0,11111222 
DISL,ioos:station:DISL:BSCA:1,2018-10-10T01:30:00Z,30.3288,-87.8293,0.0,27.92,11111222 
DISL,ioos:station:DISL:BSCA:1,2018-10-10T02:30:00Z,30.3288,-87.8293,0.0,27.84,11111222 
DISL,ioos:station:DISL:BSCA:1,2018-10-10T03:30:00Z,30.3288,-87.8293,0.0,27.78,11111222 
DISL,ioos:station:DISL:BSCA:1,2018-10-10T04:00:00Z,30.3288,-87.8293,0.0,27.77,11111222 
DISL,ioos:station:DISL:BSCA:1,2018-10-10T05:30:00Z,30.3288,-87.8293,0.0,27.76,11111222 
DISL,ioos:station:DISL:BSCA:1,2018-10-10T06:30:00Z,30.3288,-87.8293,0.0,27.73,11111222 
DISL,ioos:station:DISL:BSCA:1,2018-10-10T07:00:00Z,30.3288,-87.8293,0.0,27.71,11111222 
DISL,ioos:station:DISL:BSCA:1,2018-10-10T08:30:00Z,30.3288,-87.8293,0.0,27.62,11111222 
DISL,ioos:station:DISL:BSCA:1,2018-10-10T09:30:00Z,30.3288,-87.8293,0.0,27.56,11111222 
DISL,ioos:station:DISL:BSCA:1,2018-10-10T10:30:00Z,30.3288,-87.8293,0.0,27.52,11111222 
DISL,ioos:station:DISL:BSCA:1,2018-10-10T11:00:00Z,30.3288,-87.8293,0.0,27.51,11111222 
DISL,ioos:station:DISL:BSCA:1,2018-10-10T12:30:00Z,30.3288,-87.8293,0.0,27.41,11111222 
DISL,ioos:station:DISL:BSCA:1,2018-10-10T13:30:00Z,30.3288,-87.8293,0.0,27.35,11111222 
DISL,ioos:station:DISL:BSCA:1,2018-10-10T14:30:00Z,30.3288,-87.8293,0.0,27.31,11111222 
DISL,ioos:station:DISL:BSCA:1,2018-10-10T15:00:00Z,30.3288,-87.8293,0.0,27.29,11111222 
DISL,ioos:station:DISL:BSCA:1,2018-10-10T16:30:00Z,30.3288,-87.8293,0.0,27.26,11111222 
DISL,ioos:station:DISL:BSCA:1,2018-10-10T17:00:00Z,30.3288,-87.8293,0.0,27.26,11111222 
DISL,ioos:station:DISL:BSCA:1,2018-10-10T18:30:00Z,30.3288,-87.8293,0.0,27.26,11111222 
DISL,ioos:station:DISL:BSCA:1,2018-10-10T19:30:00Z,30.3288,-87.8293,0.0,27.29,11111222 
DISL,ioos:station:DISL:BSCA:1,2018-10-10T20:30:00Z,30.3288,-87.8293,0.0,27.37,11111222 
DISL,ioos:station:DISL:BSCA:1,2018-10-10T21:00:00Z,30.3288,-87.8293,0.0,27.39,11111222 
DISL,ioos:station:DISL:BSCA:1,2018-10-10T22:30:00Z,30.3288,-87.8293,0.0,27.35,11111222 
DISL,ioos:station:DISL:BSCA:1,2018-10-10T23:00:00Z,30.3288,-87.8293,0.0,27.31,11111222 
DISL,ioos:station:DISL:BSCA:1,2018-10-11T00:30:00Z,30.3288,-87.8293,0.0,27.16,11111222 
DISL,ioos:station:DISL:BSCA:1,2018-10-11T01:30:00Z,30.3288,-87.8293,0.0,27.19,11111222 
DISL,ioos:station:DISL:BSCA:1,2018-10-11T02:30:00Z,30.3288,-87.8293,0.0,27.17,11111222 
DISL,ioos:station:DISL:BSCA:1,2018-10-11T03:00:00Z,30.3288,-87.8293,0.0,27.15,11111222 
DISL,ioos:station:DISL:BSCA:1,2018-10-11T04:30:00Z,30.3288,-87.8293,0.0,27.11,11111222 
DISL,ioos:station:DISL:BSCA:1,2018-10-11T05:00:00Z,30.3288,-87.8293,0.0,27.1,11111222 
DISL,ioos:station:DISL:BSCA:1,2018-10-11T06:30:00Z,30.3288,-87.8293,0.0,27.0,11111222 
DISL,ioos:station:DISL:BSCA:1,2018-10-11T07:00:00Z,30.3288,-87.8293,0.0,26.96,11111222 
DISL,ioos:station:DISL:BSCA:1,2018-10-11T08:30:00Z,30.3288,-87.8293,0.0,26.87,11111222 
DISL,ioos:station:DISL:BSCA:1,2018-10-11T09:30:00Z,30.3288,-87.8293,0.0,26.77,11111222 
DISL,ioos:station:DISL:BSCA:1,2018-10-11T10:30:00Z,30.3288,-87.8293,0.0,26.71,11111222 
DISL,ioos:station:DISL:BSCA:1,2018-10-11T11:30:00Z,30.3288,-87.8293,0.0,26.61,11111222 
DISL,ioos:station:DISL:BSCA:1,2018-10-11T12:00:00Z,30.3288,-87.8293,0.0,26.55,11111222 
DISL,ioos:station:DISL:BSCA:1,2018-10-11T13:30:00Z,30.3288,-87.8293,0.0,26.41,11111222 
DISL,ioos:station:DISL:BSCA:1,2018-10-11T14:30:00Z,30.3288,-87.8293,0.0,26.4,11111222 
DISL,ioos:station:DISL:BSCA:1,2018-10-11T15:30:00Z,30.3288,-87.8293,0.0,26.45,11111222 
DISL,ioos:station:DISL:BSCA:1,2018-10-11T16:30:00Z,30.3288,-87.8293,0.0,26.49,11111222 
DISL,ioos:station:DISL:BSCA:1,2018-10-11T17:30:00Z,30.3288,-87.8293,0.0,26.55,11111222 
DISL,ioos:station:DISL:BSCA:1,2018-10-11T18:30:00Z,30.3288,-87.8293,0.0,26.53,11111222 
DISL,ioos:station:DISL:BSCA:1,2018-10-11T19:30:00Z,30.3288,-87.8293,0.0,26.66,11111222 
DISL,ioos:station:DISL:BSCA:1,2018-10-11T20:30:00Z,30.3288,-87.8293,0.0,26.79,11111222 
DISL,ioos:station:DISL:BSCA:1,2018-10-11T21:30:00Z,30.3288,-87.8293,0.0,26.77,11111222 
DISL,ioos:station:DISL:BSCA:1,2018-10-11T22:30:00Z,30.3288,-87.8293,0.0,26.72,11111222 
DISL,ioos:station:DISL:BSCA:1,2018-10-11T23:00:00Z,30.3288,-87.8293,0.0,26.68,11111222 
DISL,ioos:station:DISL:BSCA:1,2018-10-12T00:30:00Z,30.3288,-87.8293,0.0,26.5,11111222 
DISL,ioos:station:DISL:BSCA:1,2018-10-12T01:30:00Z,30.3288,-87.8293,0.0,26.42,11111222 
DISL,ioos:station:DISL:BSCA:1,2018-10-12T02:30:00Z,30.3288,-87.8293,0.0,26.3,11111222 
DISL,ioos:station:DISL:BSCA:1,2018-10-12T03:00:00Z,30.3288,-87.8293,0.0,26.22,11111222 
DISL,ioos:station:DISL:BSCA:1,2018-10-12T04:30:00Z,30.3288,-87.8293,0.0,26.06,11111222 
DISL,ioos:station:DISL:BSCA:1,2018-10-12T05:30:00Z,30.3288,-87.8293,0.0,25.92,11111222 
DISL,ioos:station:DISL:BSCA:1,2018-10-12T06:30:00Z,30.3288,-87.8293,0.0,25.84,11111222 
DISL,ioos:station:DISL:BSCA:1,2018-10-12T07:00:00Z,30.3288,-87.8293,0.0,25.68,11111222 
DISL,ioos:station:DISL:BSCA:1,2018-10-12T08:30:00Z,30.3288,-87.8293,0.0,25.43,11111222 